Regional Weather Roundup
Issued by NWS Grand Forks, ND

Home | Current Version | Previous Version | Graphics & Text | Print | Product List | Glossary On
Versions: 1 2 3 4 5 6 7 8 9 10 11 12 13 14 15 16 17 18 19 20 21 22 23 24 25 26 27 28 29 30 31 32 33 34 35 36 37 38 39 40 41 42 43 44 45 46 47 48 49 50
000
ASUS43 KFGF 301931
RWRFGF
PRAIRIE TO PINES  WEATHER ROUNDUP
NATIONAL WEATHER SERVICE EASTERN NORTH DAKOTA/GRAND FORKS ND
200 PM CDT MON MAR 30 2015

 **SATELLITE DATA USED TO AUGMENT SKY COVER AT AUTOMATED STATIONS**
 *****  WEATHER ACROSS EASTERN NORTH DAKOTA  *****

CITY           SKY/WX    TMP DP  RH WIND       PRES   REMARKS
GRAND FORKS    CLOUDY    44  37  76 E12       29.86S
GRAND FRKS AFB CLOUDY    47  36  65 E10       29.85S
GRAND FRKS NWS   N/A     43 N/A N/A E12         N/A
DEVILS LAKE    SUNNY     54  37  54 SW6       29.84R
FARGO          FAIR      59  34  39 SW12      29.81R
WAHPETON ARPT  CLEAR     61  32  33 W17       29.78F
$$

 ***** WEATHER ACROSS CENTRAL AND WESTERN NORTH DAKOTA  *****

CITY           SKY/WX    TMP DP  RH WIND       PRES   REMARKS
BISMARCK       SUNNY     64  36  35 NW25G33   29.90R
MINOT          SUNNY     62  37  39 NW23G30   29.88R
JAMESTOWN      SUNNY     65  37  35 NW25G36   29.80R
MINOT AFB      SUNNY     61  42  49 NW28G35   29.87R
GARRISON         N/A     64  38  38 NW21G33   29.89R
WILLISTON      SUNNY     65  34  31 NW13G23   29.96S
DICKINSON      SUNNY     64  31  28 NW17G26   29.96R
HETTINGER      SUNNY     66  30  26 NW18G31   29.99R
$$

 *****  OTHER AIRPORT OBSERVATIONS IN OUR AREA  *****

CITY           SKY/WX    TMP DP  RH WIND       PRES   REMARKS
WALHALLA         N/A     46  39  76 S7        29.86F
GRAFTON AIRPOR NOT AVBL
VALLEY CITY AR FAIR      63  37  39 NW20G31   29.79S
CANDO          FAIR      54  39  58 SE3       29.85F
CAVALIER APRT  MOCLDY    45  37  76 S9        29.86F
GWINNER        CLEAR     66  39  37 W18G29      N/A
SHEYENNE NWR     N/A     63  37  38 W12       29.95S
ROLLA          FAIR      54  37  54 SW6       29.84F
 ***** THE ABOVE OBSERVATIONS ARE NON NWS ARE NOT QUALITY
       CONTROLLED AND MAY MIS-REPORT RAIN FOR SNOW...
$$

  *****  WEATHER ACROSS NORTHERN MINNESOTA  *****

CITY           SKY/WX    TMP DP  RH WIND       PRES   REMARKS
FLAG ISLAND    MOSUNNY   37  30  75 SE7       29.83S
WARROAD        PTSUNNY   46  36  66 W9        29.86S
ROSEAU         CLOUDY    46  37  71 SW6       29.86R
HALLOCK        PTSUNNY   46  37  71 S9        29.86F
THF RVR FALLS  CLOUDY    41  36  81 CALM      29.88S
BAUDETTE       CLOUDY    48  32  53 W7        29.84S
WASKISH        CLOUDY    43  34  70 CALM      29.85S
CROOKSTON      PTSUNNY   43  39  87 E12       29.86F
$$
  *****  WEATHER ACROSS CENTRAL AND WEST MINNESOTA  *****

CITY           SKY/WX    TMP DP  RH WIND       PRES   REMARKS
FOSSTON        RAIN      39  37  93 CALM      29.88R
BEMIDJI        RAIN      38  35  89 CALM      29.86R
PARK RAPIDS    LGT RAIN  44  34  67 E5        29.82F
ELBOW LAKE     MOCLDY    57  35  44 SE6       29.78F
WADENA         CLOUDY    50  32  50 SE18      29.77F
DETROIT LAKES  CLOUDY    52  32  46 SE9G16    29.81R
MOORHEAD       MOSUNNY   57  34  41 S7        29.81R
FERGUS FALLS   MOSUNNY   57  28  33 S12       29.80F
MORRIS MN      SUNNY     66  37  34 S3        29.76F
STAPLES        CLOUDY    45  30  57 E9        29.81F
$$
  *****  WEATHER ELSEWHERE ACROSS MINNESOTA  *****

CITY           SKY/WX    TMP DP  RH WIND       PRES   REMARKS
DULUTH         CLOUDY    49  24  37 SW6       29.85F
INTRNTL FALLS  PTSUNNY   50  23  34 NW6       29.83F
ELY            PTSUNNY   48  19  32 CALM      29.83F
CLOQUET        CLOUDY    46  28  49 S7        29.84F
WHEATON        SUNNY     64  36  34 W20G28    29.80R
BRAINERD       LGT RAIN  43  36  76 NE3       29.86F
HIBBING        CLOUDY    51  24  34 VRB6      29.82F
ALEXANDRIA     PTSUNNY   53  34  48 SE13G18   29.82F
SAINT CLOUD    PTSUNNY   52  36  54 SE12G17   29.84F
MINNEAPOLIS    CLOUDY    51  31  46 SE14      29.88F
$$

  *****  WEATHER ACROSS SOUTH DAKOTA  *****

CITY           SKY/WX    TMP DP  RH WIND       PRES   REMARKS
SIOUX FALLS    PTSUNNY   73  26  17 NW17G24   29.87F
BROOKINGS      NOT AVBL
WATERTOWN      SUNNY     69  30  23 W20G35    29.82F
HURON          PTSUNNY   72  31  22 NW24G36   29.86F
SISSETON         N/A     69  34  27 NW22G28   29.77S
ABERDEEN       SUNNY     72  34  24 W24G32    29.83R
MITCHELL       MOSUNNY   74  25  16 W18G26    29.89F
PIERRE         PTSUNNY   69  32  25 NW28G35   29.92F
MOBRIDGE       SUNNY     71  35  26 NW24G32   29.86S
RAPID CITY     MOSUNNY   66  30  26 N22G31    30.05S
$$

  *****  SOME WEATHER IN NEARBY STATES *****

CITY           SKY/WX    TMP DP  RH WIND       PRES   REMARKS
GLASGOW MT     SUNNY     63  35  35 VRB7      30.00F
GREAT FALLS MT MOSUNNY   64  27  24 SW20G26   30.04F
CHEYENNE WY    SUNNY     62  18  18 NW10G25   30.19S
SCOTTSBLUFF NE SUNNY     70  25  18 N7G18     30.11F
OMAHA NE       PTSUNNY   73  27  18 SW22G30   29.96F
DES MOINES IA  PTSUNNY   72  23  16 W23       29.97F
DAVENPORT IA   MOSUNNY   67  28  23 W21G26    29.99F
CHICAGO IL     PTSUNNY   58  28  32 W16       29.98F
EAU CLAIRE WI  LGT RAIN  45  38  76 E9        29.93F
LA CROSSE WI   CLOUDY    53  27  36 CALM      29.94F
$$

  *****  SOME NATIONAL WEATHER *****

CITY           SKY/WX    TMP DP  RH WIND       PRES   REMARKS
LA GUARDIA NY  PTSUNNY   53  28  38 W22G29    29.76F
RALEIGH NC     MOSUNNY   60  47  61 SW9       29.98F
ATLANTA GA     MOSUNNY   68  49  50 NW12G17   30.14F
NEW ORLEANS LA PTSUNNY   78  61  55 W12       30.20F
OKLAHOMA CITY  MOSUNNY   74  39  28 S7G18     30.15F
ALBUQUERQUE NM MOSUNNY   70  25  18 SW5       30.24F
SALT LAKE CITY MOSUNNY   66  21  18 NW6       30.21F
LOS ANGELES CA MOSUNNY   66  57  72 W7        30.04S HAZE
BOISE ID       SUNNY     68  34  28 VRB3      30.13F
SEATTLE WA     PTSUNNY   57  48  72 VRB7      30.06F
$$

*** WEATHER ACROSS MANITOBA...SASKATCHEWAN AND ONTARIO ***
                ***ONTARIO***

CITY           SKY/WX    TMP DP  RH WIND       PRES   REMARKS
GERALDTON      MOSUNNY   27  12  54 W6        29.87  WCI  20
THUNDER BAY    MOSUNNY   43  21  42 VRB2      29.87F
SIOUX LOOKOUT  PTSUNNY   36  19  51 CALM      29.85F
TORONTO        PTSUNNY   45  30  57 W25G33    29.76F
BIG TROUT LK   SUNNY     12   3  67 S7        29.92F WCI   2
PICKLE LAKE    MOSUNNY   28   5  37 VRB2      29.86F
DRYDEN         PTSUNNY   41  27  56 CALM      29.84S
KENORA         MOSUNNY   46  25  42 SW8       29.83S
$$
                *** MANITOBA***

CITY           SKY/WX    TMP DP  RH WIND       PRES   REMARKS
BRANDON        PTSUNNY   54  41  62 W23       29.81F
DAUPHIN        SUNNY     54  41  62 W18G29    29.73F
ISLAND LAKE    PTSUNNY   28  16  59 SE6       29.85F WCI  22
PILOT MOUND      N/A     46  41  81 S9          N/A
THE PAS        LGT RAIN  36  36 100 VRB2      29.72R
THOMPSON       PTSUNNY   28  16  59 E8        29.80F WCI  20
WINNIPEG       PTSUNNY   50  34  53 SW13      29.84S
LYNN LAKE      CLOUDY    27  23  86 E8        29.75S WCI  18
CHURCHILL      FLURRIES   3  -2  78 N10       30.02S WCI -12
GILLAM         PTSUNNY   16   1  53 NE9       29.93S WCI   4
$$
                ***SASKATCHEWAN***

CITY           SKY/WX    TMP DP  RH WIND       PRES   REMARKS
ESTEVAN        MOSUNNY   57  34  41 NW26      29.93R
KINDERSLEY     PTSUNNY   52  27  37 NW12      29.97
LLOYDMINSTER   MOSUNNY   50  32  50 W14G20    29.91S
PRINCE ALBERT  MOSUNNY   50  36  57 NW22G29   29.83R
REGINA         PTSUNNY   54  41  62 W24       29.93S
YORKTON        SUNNY     54  37  54 W29G35    29.79S
N. BATTLEFORD  SUNNY     50  36  57 W15G21    29.93S
LA RONGE       MOSUNNY   46  30  53 W22G33    29.74
SASKATOON      MOSUNNY   54  32  43 W22G30    29.91S
SWIFT CURRENT  SUNNY     54  27  35 NW15G21   29.98F
$$
NOTE: THESE ARE AUTOMATED STATIONS WITH LIMITED QUALITY CONTROL
      "FAIR" INDICATES FEW OR NO CLOUDS BELOW 12,000 FEET WITH NO
      SIGNIFICANT WEATHER AND/OR OBSTRUCTIONS TO VISIBILITY.
      SKY/WX - SKY CONDITION AND SIGNIFICANT WEATHER.
      TMP - AIR TEMPERATURE.    DP   - DEWPOINT TEMPERATURE.
      RH  - RELATIVE HUMIDITY.  PRES - PRESSURE.
      HX  - HEAT INDEX.         WCI  - WIND CHILL INDEX.
$



USA.gov is the U.S. government's official web portal to all federal, state and local government web resources and services.